Pine Bluffs Muni, Pine Bluffs, WY

6:57 AM MDT on August 23, 2017 (GMT -0600)
Pine Bluffs Muni, Pine Bluffs

Weather History for K82V - January, 2014

Change the Weather History Date:

Friday, January 17, 2014

  Actual Average (KCYS) Record (KCYS)
Temperature  
Mean Temperature 36 °F -  
Max Temperature 48 °F 39 °F 60 °F (1954)
Min Temperature 23 °F 17 °F -30 °F (1930)
Degree Days  
Heating Degree Days 30    
Moisture  
Dew Point 17 °F    
Average Humidity 49    
Maximum Humidity 80    
Minimum Humidity 25    
Precipitation  
Precipitation 0.00 in - - ()
Sea Level Pressure  
Sea Level Pressure 30.08 in    
Wind  
Wind Speed 15 mph (WNW)    
Max Wind Speed 26 mph    
Max Gust Speed 36 mph    
Visibility 10 miles    
Events      
Averages and records for this station are not official NWS values.
T = Trace of Precipitation, MM = Missing Value Source: NWS Daily Summary

Daily Weather History Graph

Daily Weather History Graph

Search for Another Location

Airport or City:

Trip Planner

Search our weather history database for the weather conditions in past years. The results will help you decide how hot, cold, wet, or windy it might be!

Date:

Astronomy

Jan. 17, 2014 Rise Set
Actual Time 7:18 AM MST 4:55 PM MST
Civil Twilight 6:48 AM MST 5:25 PM MST
Nautical Twilight 6:14 AM MST 5:59 PM MST
Astronomical Twilight 5:41 AM MST 6:32 PM MST
Moon 6:45 PM MST (1/17) 7:46 AM MST (1/17)
Length of Visible Light 10h 36m
Length of Day
9h 36m
Full, 98% of the Moon is Illuminated
Jan 17
Full
Jan 23
Last Quarter
Jan 30
New
Feb 6
First Quarter
Feb 14
Full

Hourly Weather History & Observations

Time (MST) Temp. Windchill Dew Point Humidity Pressure Visibility Wind Dir Wind Speed Gust Speed Precip Events Conditions
12:15 AM 23.0 °F 13.9 °F 15.8 °F 74% 30.20 in 10.0 mi NW 8.1 mph - N/A   Clear
12:35 AM 23.0 °F 13.9 °F 17.6 °F 80% 30.19 in 10.0 mi West 8.1 mph - N/A   Clear
12:55 AM 24.8 °F 14.0 °F 17.6 °F 74% 30.17 in 10.0 mi WNW 11.5 mph - N/A   Clear
1:15 AM 26.6 °F 14.7 °F 17.6 °F 69% 30.17 in 10.0 mi WNW 15.0 mph - N/A   Clear
1:35 AM 26.6 °F 14.7 °F 17.6 °F 69% 30.16 in 10.0 mi WNW 15.0 mph - N/A   Clear
1:55 AM 28.4 °F 17.0 °F 17.6 °F 64% 30.15 in 10.0 mi NW 15.0 mph - N/A   Clear
2:15 AM 28.4 °F 17.0 °F 17.6 °F 64% 30.15 in 10.0 mi WNW 15.0 mph - N/A   Clear
2:35 AM 28.4 °F 17.5 °F 17.6 °F 64% 30.16 in 10.0 mi WNW 13.8 mph - N/A   Clear
2:55 AM 28.4 °F 17.0 °F 17.6 °F 64% 30.15 in 10.0 mi WNW 15.0 mph - N/A   Clear
3:15 AM 30.2 °F 19.8 °F 17.6 °F 60% 30.14 in 10.0 mi WNW 13.8 mph - N/A   Clear
3:35 AM 30.2 °F 19.3 °F 17.6 °F 60% 30.14 in 10.0 mi WNW 15.0 mph - N/A   Clear
3:55 AM 30.2 °F 19.3 °F 17.6 °F 60% 30.14 in 10.0 mi WNW 15.0 mph - N/A   Clear
4:15 AM 24.8 °F 14.6 °F 17.6 °F 74% 30.14 in 10.0 mi West 10.4 mph - N/A   Clear
4:35 AM 23.0 °F 13.1 °F 17.6 °F 80% 30.13 in 10.0 mi West 9.2 mph - N/A   Clear
4:55 AM 23.0 °F 12.4 °F 17.6 °F 80% 30.13 in 10.0 mi West 10.4 mph - N/A   Clear
5:15 AM 26.6 °F 16.2 °F 19.4 °F 74% 30.13 in 10.0 mi West 11.5 mph - N/A   Scattered Clouds
5:35 AM 30.2 °F 18.5 °F 17.6 °F 60% 30.13 in 10.0 mi WNW 17.3 mph - N/A   Scattered Clouds
5:55 AM 32.0 °F 22.5 °F 17.6 °F 55% 30.13 in 10.0 mi West 12.7 mph - N/A   Mostly Cloudy
6:15 AM 28.4 °F 20.4 °F 19.4 °F 69% 30.14 in 10.0 mi West 8.1 mph - N/A   Overcast
6:35 AM 28.4 °F 20.4 °F 19.4 °F 69% 30.14 in 10.0 mi West 8.1 mph - N/A   Overcast
6:55 AM 30.2 °F 20.2 °F 17.6 °F 60% 30.14 in 10.0 mi WNW 12.7 mph - N/A   Overcast
7:15 AM 30.2 °F 19.8 °F 17.6 °F 60% 30.14 in 10.0 mi WNW 13.8 mph - N/A   Scattered Clouds
7:35 AM 30.2 °F 18.1 °F 17.6 °F 60% 30.12 in 10.0 mi WNW 18.4 mph - N/A   Clear
7:55 AM 32.0 °F 20.8 °F 17.6 °F 55% 30.12 in 10.0 mi WNW 17.3 mph 21.9 mph N/A   Clear
8:15 AM 32.0 °F 20.8 °F 17.6 °F 55% 30.12 in 10.0 mi WNW 17.3 mph - N/A   Clear
8:35 AM 32.0 °F 20.8 °F 17.6 °F 55% 30.12 in 10.0 mi WNW 17.3 mph - N/A   Clear
8:55 AM 33.8 °F 22.8 °F 17.6 °F 52% 30.12 in 10.0 mi WNW 18.4 mph - N/A   Clear
9:15 AM 35.6 °F 25.2 °F 17.6 °F 48% 30.11 in 10.0 mi WNW 18.4 mph 25.3 mph N/A   Clear
9:35 AM 37.4 °F 27.5 °F 15.8 °F 41% 30.10 in 10.0 mi WNW 18.4 mph 26.5 mph N/A   Clear
9:55 AM 41.0 °F 31.6 °F 14.0 °F 33% 30.11 in 10.0 mi WNW 20.7 mph 25.3 mph N/A   Clear
10:15 AM 41.0 °F 32.5 °F 14.0 °F 33% 30.10 in 10.0 mi WNW 17.3 mph 27.6 mph N/A   Clear
10:35 AM 42.8 °F 33.1 °F 14.0 °F 31% 30.10 in 10.0 mi WNW 25.3 mph 29.9 mph N/A   Clear
10:55 AM 44.6 °F 35.7 °F 14.0 °F 29% 30.09 in 10.0 mi NW 24.2 mph 32.2 mph N/A   Clear
11:15 AM 44.6 °F 35.5 °F 14.0 °F 29% 30.08 in 10.0 mi WNW 25.3 mph 33.4 mph N/A   Clear
11:35 AM 44.6 °F 35.3 °F 14.0 °F 29% 30.07 in 10.0 mi NW 26.5 mph 33.4 mph N/A   Clear
11:55 AM 44.6 °F 35.3 °F 14.0 °F 29% 30.05 in 10.0 mi WNW 26.5 mph 35.7 mph N/A   Clear
12:15 PM 46.4 °F 38.1 °F 14.0 °F 27% 30.05 in 10.0 mi NW 24.2 mph 32.2 mph N/A   Clear
12:35 PM 46.4 °F 38.3 °F 14.0 °F 27% 30.03 in 10.0 mi NW 23.0 mph 31.1 mph N/A   Clear
12:55 PM 46.4 °F 38.7 °F 14.0 °F 27% 30.03 in 10.0 mi NW 20.7 mph 29.9 mph N/A   Clear
1:15 PM 48.2 °F - 14.0 °F 25% 30.02 in 10.0 mi NW 25.3 mph 29.9 mph N/A   Clear
1:35 PM 46.4 °F 38.7 °F 14.0 °F 27% 30.02 in 10.0 mi NW 20.7 mph 28.8 mph N/A   Clear
1:55 PM 46.4 °F 38.7 °F 15.8 °F 29% 30.02 in 10.0 mi NNW 20.7 mph 28.8 mph N/A   Clear
2:15 PM 46.4 °F 38.1 °F 15.8 °F 29% 30.01 in 10.0 mi NNW 24.2 mph 29.9 mph N/A   Clear
2:35 PM 46.4 °F 38.5 °F 15.8 °F 29% 30.01 in 10.0 mi NW 21.9 mph 27.6 mph N/A   Clear
2:55 PM 46.4 °F 38.7 °F 17.6 °F 32% 30.02 in 10.0 mi NNW 20.7 mph 26.5 mph N/A   Clear
3:15 PM 46.4 °F 38.5 °F 17.6 °F 32% 30.01 in 10.0 mi NW 21.9 mph 28.8 mph N/A   Scattered Clouds
3:35 PM 44.6 °F 37.8 °F 17.6 °F 34% 30.02 in 10.0 mi NW 15.0 mph 27.6 mph N/A   Clear
3:55 PM 42.8 °F 35.8 °F 17.6 °F 36% 30.01 in 10.0 mi NNW 13.8 mph 20.7 mph N/A   Clear
4:15 PM 41.0 °F 33.9 °F 17.6 °F 39% 30.02 in 10.0 mi NNW 12.7 mph - N/A   Clear
4:35 PM 39.2 °F 32.5 °F 17.6 °F 42% 30.02 in 10.0 mi NW 10.4 mph - N/A   Clear
4:55 PM 37.4 °F 29.3 °F 17.6 °F 45% 30.02 in 10.0 mi NW 12.7 mph - N/A   Clear
5:15 PM 41.0 °F 32.8 °F 15.8 °F 36% 30.02 in 10.0 mi NW 16.1 mph 21.9 mph N/A   Clear
5:35 PM 39.2 °F 31.2 °F 15.8 °F 39% 30.03 in 10.0 mi WNW 13.8 mph - N/A   Clear
5:55 PM 39.2 °F 29.8 °F 15.8 °F 39% 30.02 in 10.0 mi WNW 18.4 mph 26.5 mph N/A   Clear
6:15 PM 41.0 °F 32.2 °F 15.8 °F 36% 30.03 in 10.0 mi WNW 18.4 mph 24.2 mph N/A   Clear
6:35 PM 41.0 °F 30.9 °F 14.0 °F 33% 30.03 in 10.0 mi WNW 24.2 mph 29.9 mph N/A   Clear
6:55 PM 41.0 °F 31.9 °F 14.0 °F 33% 30.04 in 10.0 mi WNW 19.6 mph 28.8 mph N/A   Clear
7:15 PM 37.4 °F 27.5 °F 14.0 °F 38% 30.04 in 10.0 mi WNW 18.4 mph - N/A   Clear
7:35 PM 37.4 °F 27.2 °F 15.8 °F 41% 30.04 in 10.0 mi WNW 19.6 mph - N/A   Clear
7:55 PM 35.6 °F 25.9 °F 15.8 °F 44% 30.04 in 10.0 mi WNW 16.1 mph - N/A   Clear
8:15 PM 33.8 °F 26.4 °F 17.6 °F 52% 30.05 in 10.0 mi West 9.2 mph - N/A   Clear
8:35 PM 33.8 °F 24.3 °F 17.6 °F 52% 30.05 in 10.0 mi WNW 13.8 mph - N/A   Clear
8:55 PM 33.8 °F 23.2 °F 17.6 °F 52% 30.05 in 10.0 mi NW 17.3 mph - N/A   Clear
9:15 PM 33.8 °F 23.5 °F 17.6 °F 52% 30.05 in 10.0 mi WNW 16.1 mph - N/A   Clear
9:35 PM 33.8 °F 23.9 °F 17.6 °F 52% 30.05 in 10.0 mi NW 15.0 mph - N/A   Clear
9:55 PM 33.8 °F 23.9 °F 17.6 °F 52% 30.05 in 10.0 mi NW 15.0 mph - N/A   Clear
10:15 PM 32.0 °F 22.5 °F 17.6 °F 55% 30.05 in 10.0 mi NW 12.7 mph - N/A   Clear
10:35 PM 32.0 °F 22.5 °F 17.6 °F 55% 30.05 in 10.0 mi WNW 12.7 mph 17.3 mph N/A   Clear
10:55 PM 33.8 °F 24.8 °F 17.6 °F 52% 30.05 in 10.0 mi WNW 12.7 mph 20.7 mph N/A   Clear
11:15 PM 32.0 °F 23.0 °F 17.6 °F 55% 30.06 in 10.0 mi WNW 11.5 mph - N/A   Clear
11:35 PM 30.2 °F 20.2 °F 17.6 °F 60% 30.05 in 10.0 mi West 12.7 mph - N/A   Clear
11:55 PM 33.8 °F 22.5 °F 17.6 °F 52% 30.05 in 10.0 mi WNW 19.6 mph - N/A   Clear